| time (UTC) | temp F | wind direction | speed MPH | gust MPH | rain 1hr in | rain 24hr in | rain mn in | humidity % | barometer mb |
| 20260831110217 | 65 | 0 | 0.0 | 0.0 | 0.00 | 0.14 | 0.08 | 96 | 1018.4 |
| 20260831105716 | 66 | 0 | 0.0 | 0.0 | 0.00 | 0.14 | 0.08 | 96 | 1018.4 |
| 20260831105003 | 66 | 0 | 0.0 | 0.0 | 0.00 | 0.14 | 0.08 | 96 | 1018.3 |
| 20260831104503 | 65 | 0 | 0.0 | 0.0 | 0.00 | 0.14 | 0.08 | 96 | 1018.3 |
| 20260831104003 | 66 | 0 | 0.0 | 0.0 | 0.00 | 0.14 | 0.08 | 96 | 1018.3 |
| 20260831103503 | 66 | 0 | 0.0 | 0.0 | 0.00 | 0.14 | 0.08 | 96 | 1018.3 |
| 20260831103003 | 65 | 0 | 0.0 | 0.0 | 0.00 | 0.14 | 0.08 | 96 | 1018.3 |
| 20260831102503 | 66 | 0 | 0.0 | 0.0 | 0.00 | 0.14 | 0.08 | 96 | 1018.1 |
| 20260831102003 | 66 | 0 | 0.0 | 0.0 | 0.00 | 0.14 | 0.08 | 96 | 1018.2 |
| 20260831101503 | 66 | 0 | 0.0 | 0.0 | 0.00 | 0.14 | 0.08 | 96 | 1018.4 |
| 20260831101003 | 66 | 0 | 0.0 | 0.0 | 0.00 | 0.14 | 0.08 | 96 | 1018.5 |
| 20260831100508 | 66 | 0 | 0.0 | 0.0 | 0.00 | 0.14 | 0.08 | 96 | 1018.4 |
| 20260831100003 | 66 | 0 | 0.0 | 0.0 | 0.00 | 0.14 | 0.08 | 96 | 1018.4 |
| 20260831095503 | 66 | 0 | 0.0 | 0.0 | 0.00 | 0.14 | 0.08 | 96 | 1018.3 |
| 20260831095003 | 66 | 0 | 0.0 | 0.0 | 0.00 | 0.14 | 0.08 | 96 | 1018.3 |
| 20260831094718 | 66 | 0 | 0.0 | 0.0 | 0.00 | 0.14 | 0.08 | 96 | 1018.2 |
| 20260831094003 | 66 | 0 | 0.0 | 0.0 | 0.00 | 0.14 | 0.08 | 95 | 1018.1 |
| 20260831093718 | 66 | 0 | 0.0 | 0.0 | 0.00 | 0.14 | 0.08 | 96 | 1018.1 |
| 20260831093003 | 66 | 0 | 0.0 | 0.0 | 0.00 | 0.14 | 0.08 | 96 | 1018.1 |
| 20260831092503 | 66 | 0 | 0.0 | 0.0 | 0.00 | 0.14 | 0.08 | 96 | 1018.2 |
| 20260831092217 | 66 | 0 | 0.0 | 0.0 | 0.00 | 0.14 | 0.08 | 96 | 1018.1 |
| 20260831091503 | 66 | 0 | 0.0 | 0.0 | 0.00 | 0.14 | 0.08 | 96 | 1018.1 |
| 20260831091217 | 66 | 0 | 0.0 | 0.0 | 0.00 | 0.14 | 0.08 | 96 | 1018.0 |
| 20260831090503 | 66 | 0 | 0.0 | 0.0 | 0.00 | 0.14 | 0.08 | 96 | 1018.3 |
| 20260831090003 | 66 | 0 | 0.0 | 0.0 | 0.00 | 0.14 | 0.08 | 96 | 1018.4 |
| 20260831085503 | 66 | 0 | 0.0 | 0.0 | 0.00 | 0.14 | 0.08 | 96 | 1018.4 |
| 20260831085003 | 66 | 0 | 0.0 | 0.0 | 0.00 | 0.14 | 0.08 | 96 | 1018.5 |
| 20260831084503 | 66 | 0 | 0.0 | 0.0 | 0.01 | 0.14 | 0.08 | 96 | 1018.6 |
| 20260831084003 | 66 | 0 | 0.0 | 0.0 | 0.01 | 0.14 | 0.08 | 96 | 1018.7 |
| 20260831083503 | 66 | 0 | 0.0 | 0.0 | 0.01 | 0.14 | 0.08 | 96 | 1018.8 |
| 20260831083216 | 66 | 0 | 0.0 | 0.0 | 0.01 | 0.14 | 0.08 | 96 | 1018.8 |
| 20260831082503 | 66 | 0 | 0.0 | 0.0 | 0.01 | 0.14 | 0.08 | 96 | 1018.8 |
| 20260831082003 | 66 | 0 | 0.0 | 0.0 | 0.01 | 0.14 | 0.08 | 96 | 1018.9 |
| 20260831081503 | 66 | 238 | 0.0 | 1.0 | 0.01 | 0.14 | 0.08 | 96 | 1019.0 |
| 20260831081003 | 66 | 238 | 0.0 | 1.0 | 0.01 | 0.14 | 0.08 | 96 | 1018.9 |
| 20260831080503 | 66 | 0 | 0.0 | 0.0 | 0.02 | 0.14 | 0.08 | 96 | 1018.9 |
| 20260831080003 | 66 | 0 | 0.0 | 0.0 | 0.02 | 0.14 | 0.08 | 96 | 1018.8 |
| 20260831075503 | 66 | 0 | 0.0 | 0.0 | 0.02 | 0.14 | 0.08 | 96 | 1018.8 |
| 20260831075003 | 66 | 0 | 0.0 | 0.0 | 0.02 | 0.14 | 0.08 | 96 | 1018.9 |
| 20260831074503 | 66 | 0 | 0.0 | 0.0 | 0.01 | 0.13 | 0.07 | 96 | 1019.1 |
| 20260831074003 | 66 | 0 | 0.0 | 0.0 | 0.02 | 0.13 | 0.07 | 96 | 1019.1 |
| 20260831073503 | 66 | 0 | 0.0 | 0.0 | 0.03 | 0.13 | 0.07 | 96 | 1019.1 |
| 20260831073003 | 66 | 238 | 0.0 | 1.0 | 0.04 | 0.13 | 0.07 | 96 | 1019.2 |
| 20260831072503 | 66 | 238 | 0.0 | 1.0 | 0.04 | 0.13 | 0.07 | 96 | 1019.2 |
| 20260831072218 | 66 | 238 | 0.0 | 1.0 | 0.04 | 0.13 | 0.07 | 96 | 1019.2 |
| 20260831071503 | 66 | 0 | 0.0 | 0.0 | 0.04 | 0.13 | 0.07 | 95 | 1019.1 |
| 20260831071003 | 66 | 0 | 0.0 | 0.0 | 0.04 | 0.13 | 0.07 | 95 | 1019.0 |
| 20260831070503 | 66 | 0 | 0.0 | 0.0 | 0.03 | 0.12 | 0.06 | 95 | 1019.1 |
| 20260831070003 | 66 | 0 | 0.0 | 0.0 | 0.03 | 0.12 | 0.06 | 95 | 1019.0 |
| 20260831065503 | 66 | 0 | 0.0 | 0.0 | 0.03 | 0.12 | 0.06 | 95 | 1019.2 |
| 20260831065003 | 66 | 0 | 0.0 | 0.0 | 0.03 | 0.12 | 0.06 | 95 | 1019.3 |
| 20260831064503 | 66 | 0 | 0.0 | 0.0 | 0.03 | 0.12 | 0.06 | 95 | 1019.3 |
| 20260831064003 | 66 | 0 | 0.0 | 0.0 | 0.03 | 0.11 | 0.05 | 95 | 1019.4 |
| 20260831063503 | 66 | 0 | 0.0 | 0.0 | 0.02 | 0.10 | 0.04 | 95 | 1019.4 |
| 20260831063003 | 66 | 0 | 0.0 | 0.0 | 0.01 | 0.09 | 0.03 | 95 | 1019.4 |
| 20260831062717 | 66 | 0 | 0.0 | 0.0 | 0.01 | 0.09 | 0.03 | 95 | 1019.4 |
| 20260831062003 | 66 | 0 | 0.0 | 0.0 | 0.01 | 0.09 | 0.03 | 95 | 1019.5 |
| 20260831061503 | 66 | 0 | 0.0 | 0.0 | 0.03 | 0.09 | 0.03 | 95 | 1019.5 |
| 20260831061003 | 66 | 0 | 0.0 | 0.0 | 0.03 | 0.09 | 0.03 | 95 | 1019.5 |
| 20260831060503 | 66 | 0 | 0.0 | 0.0 | 0.03 | 0.09 | 0.03 | 95 | 1019.5 |
| 20260831060217 | 66 | 0 | 0.0 | 0.0 | 0.03 | 0.09 | 0.03 | 95 | 1019.6 |
| 20260831055503 | 66 | 0 | 0.0 | 0.0 | 0.03 | 0.09 | 0.03 | 95 | 1019.6 |
| 20260831055003 | 66 | 0 | 0.0 | 0.0 | 0.03 | 0.09 | 0.03 | 95 | 1019.5 |
| 20260831054503 | 66 | 0 | 0.0 | 0.0 | 0.03 | 0.09 | 0.03 | 95 | 1019.6 |
| 20260831054003 | 66 | 238 | 0.0 | 1.0 | 0.02 | 0.08 | 0.02 | 95 | 1019.6 |
| 20260831053503 | 66 | 236 | 0.0 | 1.0 | 0.02 | 0.08 | 0.02 | 95 | 1019.6 |
| 20260831053003 | 66 | 232 | 0.0 | 1.0 | 0.02 | 0.08 | 0.02 | 95 | 1019.6 |
| 20260831052503 | 66 | 226 | 0.0 | 1.0 | 0.02 | 0.08 | 0.02 | 95 | 1019.5 |
| 20260831052003 | 66 | 0 | 0.0 | 0.0 | 0.02 | 0.08 | 0.02 | 95 | 1019.5 |
| 20260831051718 | 66 | 0 | 0.0 | 0.0 | 0.01 | 0.07 | 0.01 | 95 | 1019.6 |
| 20260831051003 | 66 | 226 | 0.0 | 1.0 | 0.00 | 0.06 | 0.00 | 95 | 1019.6 |
| 20260831050503 | 66 | 226 | 0.0 | 1.0 | 0.00 | 0.06 | 0.00 | 96 | 1019.6 |
| 20260831050003 | 66 | 0 | 0.0 | 0.0 | 0.00 | 0.06 | 0.00 | 95 | 1019.6 |
| 20260831045503 | 65 | 0 | 0.0 | 0.0 | 0.00 | 0.06 | 0.00 | 95 | 1019.6 |
| 20260831045003 | 65 | 0 | 0.0 | 0.0 | 0.00 | 0.06 | 0.00 | 95 | 1019.6 |
| 20260831044503 | 65 | 0 | 0.0 | 0.0 | 0.00 | 0.06 | 0.00 | 95 | 1019.6 |
| 20260831044003 | 65 | 0 | 0.0 | 0.0 | 0.00 | 0.06 | 0.00 | 95 | 1019.6 |
| 20260831043503 | 65 | 0 | 0.0 | 0.0 | 0.00 | 0.06 | 0.00 | 95 | 1019.5 |
| 20260831043003 | 65 | 0 | 0.0 | 0.0 | 0.00 | 0.06 | 0.00 | 95 | 1019.5 |
| 20260831042503 | 65 | 0 | 0.0 | 0.0 | 0.00 | 0.06 | 0.00 | 95 | 1019.6 |
| 20260831042003 | 65 | 0 | 0.0 | 0.0 | 0.00 | 0.06 | 0.00 | 95 | 1019.6 |
| 20260831041718 | 65 | 0 | 0.0 | 0.0 | 0.00 | 0.06 | 0.00 | 95 | 1019.7 |
| 20260831041217 | 65 | 0 | 0.0 | 0.0 | 0.00 | 0.06 | 0.00 | 95 | 1019.7 |
| 20260831040503 | 65 | 0 | 0.0 | 0.0 | 0.00 | 0.06 | 0.00 | 95 | 1019.7 |
| 20260831040004 | 65 | 0 | 0.0 | 0.0 | 0.00 | 0.06 | 0.00 | 95 | 1019.7 |
| 20260831035503 | 65 | 0 | 0.0 | 0.0 | 0.00 | 0.06 | 0.06 | 95 | 1019.7 |
| 20260831035003 | 65 | 0 | 0.0 | 0.0 | 0.00 | 0.06 | 0.06 | 95 | 1019.6 |
| 20260831034503 | 65 | 0 | 0.0 | 0.0 | 0.00 | 0.06 | 0.06 | 95 | 1019.6 |
| 20260831034003 | 65 | 0 | 0.0 | 0.0 | 0.00 | 0.06 | 0.06 | 95 | 1019.6 |
| 20260831033503 | 65 | 0 | 0.0 | 0.0 | 0.00 | 0.06 | 0.06 | 95 | 1019.6 |
| 20260831033003 | 65 | 0 | 0.0 | 0.0 | 0.00 | 0.06 | 0.06 | 95 | 1019.7 |
| 20260831032717 | 65 | 226 | 0.0 | 1.0 | 0.00 | 0.06 | 0.06 | 95 | 1019.8 |
| 20260831032003 | 65 | 226 | 0.0 | 1.0 | 0.00 | 0.06 | 0.06 | 95 | 1019.7 |
| 20260831031718 | 65 | 0 | 0.0 | 0.0 | 0.00 | 0.06 | 0.06 | 95 | 1019.7 |
| 20260831031003 | 65 | 0 | 0.0 | 0.0 | 0.00 | 0.06 | 0.06 | 95 | 1019.9 |
| 20260831030503 | 65 | 0 | 0.0 | 0.0 | 0.00 | 0.06 | 0.06 | 95 | 1019.9 |
| 20260831030003 | 65 | 0 | 0.0 | 0.0 | 0.00 | 0.06 | 0.06 | 95 | 1019.9 |
| 20260831025717 | 65 | 226 | 0.0 | 1.0 | 0.00 | 0.06 | 0.06 | 95 | 1019.9 |
| 20260831025003 | 65 | 226 | 0.0 | 1.0 | 0.00 | 0.06 | 0.06 | 95 | 1019.9 |
| 20260831024503 | 65 | 0 | 0.0 | 0.0 | 0.00 | 0.06 | 0.06 | 95 | 1019.9 |
| 20260831024218 | 65 | 0 | 0.0 | 0.0 | 0.00 | 0.06 | 0.06 | 95 | 1020.0 |
| 20260831023503 | 65 | 0 | 0.0 | 0.0 | 0.00 | 0.06 | 0.06 | 95 | 1019.8 |
| 20260831023003 | 64 | 226 | 0.0 | 1.0 | 0.00 | 0.06 | 0.06 | 95 | 1019.6 |
| 20260831022503 | 64 | 226 | 0.0 | 1.0 | 0.00 | 0.06 | 0.06 | 95 | 1019.4 |
| 20260831022003 | 65 | 226 | 0.0 | 1.0 | 0.00 | 0.06 | 0.06 | 95 | 1019.5 |
| 20260831021503 | 64 | 226 | 0.0 | 2.0 | 0.00 | 0.06 | 0.06 | 94 | 1019.7 |
| 20260831021003 | 64 | 226 | 0.0 | 2.0 | 0.00 | 0.06 | 0.06 | 94 | 1019.7 |
| 20260831020717 | 64 | 0 | 0.0 | 0.0 | 0.00 | 0.06 | 0.06 | 94 | 1019.7 |
| 20260831020218 | 64 | 0 | 0.0 | 0.0 | 0.00 | 0.06 | 0.06 | 94 | 1019.6 |
| 20260831015503 | 64 | 275 | 0.0 | 3.0 | 0.00 | 0.06 | 0.06 | 94 | 1019.6 |
| 20260831015003 | 64 | 275 | 0.0 | 3.0 | 0.00 | 0.06 | 0.06 | 94 | 1019.7 |
| 20260831014503 | 64 | 0 | 0.0 | 0.0 | 0.00 | 0.06 | 0.06 | 94 | 1019.7 |
| 20260831014003 | 64 | 57 | 0.0 | 1.0 | 0.00 | 0.06 | 0.06 | 94 | 1019.7 |
| 20260831013717 | 64 | 57 | 0.0 | 1.0 | 0.00 | 0.06 | 0.06 | 94 | 1019.6 |
| 20260831013003 | 64 | 57 | 0.0 | 1.0 | 0.00 | 0.06 | 0.06 | 94 | 1019.7 |
| 20260831012503 | 64 | 57 | 0.0 | 1.0 | 0.00 | 0.06 | 0.06 | 94 | 1019.8 |
| 20260831012003 | 64 | 57 | 0.0 | 1.0 | 0.00 | 0.06 | 0.06 | 94 | 1019.7 |
| 20260831011503 | 64 | 0 | 0.0 | 0.0 | 0.00 | 0.06 | 0.06 | 94 | 1019.6 |
| 20260831011003 | 64 | 0 | 0.0 | 0.0 | 0.00 | 0.06 | 0.06 | 94 | 1019.6 |
| 20260831010504 | 64 | 0 | 0.0 | 0.0 | 0.00 | 0.06 | 0.06 | 94 | 1019.6 |
| 20260831010003 | 64 | 0 | 0.0 | 0.0 | 0.00 | 0.06 | 0.06 | 94 | 1019.6 |
| 20260831005503 | 64 | 0 | 0.0 | 0.0 | 0.00 | 0.06 | 0.06 | 94 | 1019.5 |
| 20260831005003 | 64 | 0 | 0.0 | 0.0 | 0.00 | 0.06 | 0.06 | 94 | 1019.5 |
| 20260831004503 | 64 | 0 | 0.0 | 0.0 | 0.00 | 0.06 | 0.06 | 94 | 1019.4 |
| 20260831004003 | 64 | 0 | 0.0 | 0.0 | 0.00 | 0.06 | 0.06 | 94 | 1019.2 |
| 20260831003503 | 64 | 0 | 0.0 | 0.0 | 0.00 | 0.06 | 0.06 | 94 | 1019.2 |
| 20260831003003 | 64 | 0 | 0.0 | 0.0 | 0.00 | 0.06 | 0.06 | 94 | 1019.0 |
| 20260831002503 | 64 | 0 | 0.0 | 0.0 | 0.00 | 0.06 | 0.06 | 94 | 1019.0 |
| 20260831002003 | 64 | 0 | 0.0 | 0.0 | 0.00 | 0.06 | 0.06 | 94 | 1019.0 |
| 20260831001503 | 64 | 0 | 0.0 | 0.0 | 0.00 | 0.06 | 0.06 | 94 | 1019.0 |
| 20260831001003 | 64 | 0 | 0.0 | 0.0 | 0.00 | 0.06 | 0.06 | 94 | 1019.0 |
| 20260831000503 | 64 | 0 | 0.0 | 0.0 | 0.00 | 0.06 | 0.06 | 94 | 1019.0 |
| 20260831000003 | 64 | 0 | 0.0 | 0.0 | 0.00 | 0.06 | 0.06 | 94 | 1019.1 |
| 20260830235503 | 64 | 57 | 0.0 | 1.0 | 0.00 | 0.06 | 0.06 | 94 | 1018.9 |
| 20260830235003 | 65 | 57 | 0.0 | 1.0 | 0.00 | 0.06 | 0.06 | 94 | 1019.0 |
| 20260830234718 | 65 | 57 | 0.0 | 1.0 | 0.00 | 0.06 | 0.06 | 94 | 1018.9 |
| 20260830234003 | 65 | 0 | 0.0 | 0.0 | 0.00 | 0.06 | 0.06 | 94 | 1018.9 |
| 20260830233503 | 65 | 0 | 0.0 | 0.0 | 0.00 | 0.06 | 0.06 | 94 | 1019.0 |
| 20260830233003 | 65 | 0 | 0.0 | 0.0 | 0.00 | 0.06 | 0.06 | 94 | 1019.0 |
| 20260830232503 | 65 | 0 | 0.0 | 0.0 | 0.00 | 0.06 | 0.06 | 94 | 1018.9 |
| 20260830232217 | 65 | 0 | 0.0 | 0.0 | 0.00 | 0.06 | 0.06 | 94 | 1018.9 |
| 20260830231503 | 65 | 0 | 0.0 | 0.0 | 0.00 | 0.06 | 0.06 | 94 | 1018.9 |
| 20260830231003 | 65 | 0 | 0.0 | 0.0 | 0.00 | 0.06 | 0.06 | 94 | 1018.9 |
| 20260830230503 | 65 | 0 | 0.0 | 0.0 | 0.00 | 0.06 | 0.06 | 94 | 1019.0 |
| 20260830230003 | 65 | 57 | 0.0 | 1.0 | 0.00 | 0.06 | 0.06 | 94 | 1019.0 |
| 20260830225503 | 65 | 57 | 0.0 | 1.0 | 0.00 | 0.06 | 0.06 | 93 | 1019.1 |
| 20260830225003 | 65 | 0 | 0.0 | 0.0 | 0.00 | 0.06 | 0.06 | 94 | 1019.1 |
| 20260830224503 | 65 | 0 | 0.0 | 0.0 | 0.00 | 0.06 | 0.06 | 94 | 1019.2 |
| 20260830224003 | 65 | 0 | 0.0 | 0.0 | 0.00 | 0.06 | 0.06 | 94 | 1019.1 |
| 20260830223503 | 65 | 0 | 0.0 | 0.0 | 0.00 | 0.06 | 0.06 | 94 | 1019.2 |
| 20260830223003 | 65 | 0 | 0.0 | 0.0 | 0.00 | 0.06 | 0.06 | 94 | 1019.2 |
| 20260830222503 | 65 | 0 | 0.0 | 0.0 | 0.00 | 0.06 | 0.06 | 93 | 1019.2 |
| 20260830222003 | 65 | 0 | 0.0 | 0.0 | 0.00 | 0.06 | 0.06 | 93 | 1019.2 |
| 20260830221503 | 65 | 0 | 0.0 | 0.0 | 0.00 | 0.06 | 0.06 | 93 | 1019.2 |
| 20260830221003 | 65 | 0 | 0.0 | 0.0 | 0.00 | 0.06 | 0.06 | 93 | 1019.2 |
| 20260830220503 | 65 | 0 | 0.0 | 0.0 | 0.00 | 0.06 | 0.06 | 93 | 1019.2 |
| 20260830220003 | 65 | 0 | 0.0 | 0.0 | 0.00 | 0.06 | 0.06 | 93 | 1019.2 |
| 20260830215717 | 65 | 0 | 0.0 | 0.0 | 0.00 | 0.06 | 0.06 | 93 | 1019.2 |
| 20260830215003 | 65 | 0 | 0.0 | 0.0 | 0.00 | 0.06 | 0.06 | 93 | 1019.2 |
| 20260830214503 | 65 | 0 | 0.0 | 0.0 | 0.00 | 0.06 | 0.06 | 93 | 1019.1 |
| 20260830214003 | 65 | 0 | 0.0 | 0.0 | 0.00 | 0.06 | 0.06 | 93 | 1019.1 |
| 20260830213717 | 65 | 0 | 0.0 | 0.0 | 0.00 | 0.06 | 0.06 | 93 | 1019.0 |
| 20260830213003 | 65 | 0 | 0.0 | 0.0 | 0.00 | 0.06 | 0.06 | 93 | 1019.0 |
| 20260830212503 | 65 | 0 | 0.0 | 0.0 | 0.00 | 0.06 | 0.06 | 93 | 1019.0 |
| 20260830212003 | 65 | 0 | 0.0 | 0.0 | 0.00 | 0.06 | 0.06 | 92 | 1019.1 |
| 20260830211503 | 65 | 0 | 0.0 | 0.0 | 0.00 | 0.06 | 0.06 | 92 | 1019.0 |
| 20260830211003 | 65 | 0 | 0.0 | 0.0 | 0.00 | 0.06 | 0.06 | 92 | 1019.2 |
| 20260830210503 | 65 | 0 | 0.0 | 0.0 | 0.01 | 0.06 | 0.06 | 92 | 1019.2 |
| 20260830210218 | 65 | 0 | 0.0 | 0.0 | 0.01 | 0.06 | 0.06 | 92 | 1019.1 |
| 20260830205503 | 65 | 0 | 0.0 | 0.0 | 0.01 | 0.06 | 0.06 | 92 | 1019.1 |
| 20260830205003 | 66 | 0 | 0.0 | 0.0 | 0.02 | 0.06 | 0.06 | 92 | 1019.2 |
| 20260830204503 | 66 | 0 | 0.0 | 0.0 | 0.03 | 0.06 | 0.06 | 92 | 1019.1 |
| 20260830204218 | 66 | 0 | 0.0 | 0.0 | 0.03 | 0.06 | 0.06 | 92 | 1019.1 |
| 20260830203503 | 66 | 0 | 0.0 | 0.0 | 0.03 | 0.06 | 0.06 | 92 | 1019.1 |
| 20260830203003 | 66 | 0 | 0.0 | 0.0 | 0.03 | 0.06 | 0.06 | 92 | 1019.1 |
| 20260830202717 | 66 | 0 | 0.0 | 0.0 | 0.04 | 0.06 | 0.06 | 92 | 1019.1 |
| 20260830202219 | 66 | 57 | 0.0 | 1.0 | 0.04 | 0.06 | 0.06 | 92 | 1019.2 |
| 20260830201717 | 66 | 57 | 0.0 | 1.0 | 0.04 | 0.06 | 0.06 | 92 | 1019.3 |
| 20260830201003 | 66 | 62 | 0.0 | 1.0 | 0.04 | 0.06 | 0.06 | 92 | 1019.3 |
| 20260830200503 | 66 | 70 | 0.0 | 1.0 | 0.03 | 0.05 | 0.05 | 92 | 1019.3 |
| 20260830200003 | 66 | 96 | 0.0 | 1.0 | 0.03 | 0.05 | 0.05 | 92 | 1019.4 |
| 20260830195503 | 66 | 0 | 0.0 | 0.0 | 0.03 | 0.05 | 0.05 | 92 | 1019.4 |
| 20260830195218 | 66 | 0 | 0.0 | 0.0 | 0.02 | 0.04 | 0.04 | 92 | 1019.5 |
| 20260830194503 | 66 | 0 | 0.0 | 0.0 | 0.01 | 0.03 | 0.03 | 92 | 1019.6 |
| 20260830194003 | 67 | 96 | 0.0 | 1.0 | 0.01 | 0.03 | 0.03 | 92 | 1019.6 |
| 20260830193503 | 67 | 91 | 0.0 | 1.0 | 0.01 | 0.03 | 0.03 | 91 | 1019.6 |
| 20260830193218 | 67 | 87 | 0.0 | 1.0 | 0.01 | 0.03 | 0.03 | 91 | 1019.6 |
| 20260830192503 | 67 | 137 | 0.0 | 2.0 | 0.00 | 0.02 | 0.02 | 91 | 1019.5 |
| 20260830192003 | 67 | 118 | 0.0 | 2.0 | 0.00 | 0.02 | 0.02 | 91 | 1019.5 |
| 20260830191503 | 67 | 272 | 0.0 | 1.0 | 0.00 | 0.02 | 0.02 | 91 | 1019.5 |
| 20260830191003 | 67 | 258 | 0.0 | 2.0 | 0.00 | 0.02 | 0.02 | 92 | 1019.5 |
| 20260830190503 | 67 | 254 | 0.0 | 2.0 | 0.00 | 0.02 | 0.02 | 91 | 1019.6 |
| 20260830190003 | 67 | 236 | 1.0 | 2.0 | 0.00 | 0.02 | 0.02 | 91 | 1019.7 |
| 20260830185503 | 67 | 222 | 1.0 | 2.0 | 0.00 | 0.02 | 0.02 | 91 | 1019.6 |
| 20260830185003 | 68 | 224 | 1.0 | 3.0 | 0.00 | 0.02 | 0.02 | 91 | 1019.7 |
| 20260830184503 | 68 | 198 | 1.0 | 3.0 | 0.00 | 0.02 | 0.02 | 92 | 1019.8 |
| 20260830184003 | 68 | 202 | 1.0 | 3.0 | 0.00 | 0.02 | 0.02 | 93 | 1019.7 |
| 20260830183503 | 68 | 212 | 1.0 | 3.0 | 0.00 | 0.02 | 0.02 | 93 | 1019.8 |
| 20260830183003 | 68 | 181 | 0.0 | 2.0 | 0.00 | 0.02 | 0.02 | 94 | 1020.0 |
| 20260830182503 | 68 | 0 | 0.0 | 0.0 | 0.00 | 0.02 | 0.02 | 94 | 1019.9 |
| 20260830182217 | 68 | 0 | 0.0 | 0.0 | 0.00 | 0.02 | 0.02 | 93 | 1020.0 |
| 20260830181718 | 68 | 0 | 0.0 | 0.0 | 0.00 | 0.02 | 0.02 | 93 | 1020.1 |
| 20260830181003 | 68 | 0 | 0.0 | 0.0 | 0.00 | 0.02 | 0.02 | 93 | 1020.1 |
| 20260830180503 | 68 | 0 | 0.0 | 0.0 | 0.00 | 0.02 | 0.02 | 93 | 1020.1 |
| 20260830180004 | 68 | 0 | 0.0 | 0.0 | 0.00 | 0.02 | 0.02 | 93 | 1020.0 |
| 20260830175503 | 68 | 0 | 0.0 | 0.0 | 0.00 | 0.02 | 0.02 | 93 | 1020.0 |
| 20260830175006 | 68 | 0 | 0.0 | 0.0 | 0.00 | 0.02 | 0.02 | 93 | 1020.0 |
| 20260830174503 | 68 | 0 | 0.0 | 0.0 | 0.00 | 0.02 | 0.02 | 93 | 1019.9 |
| 20260830174003 | 67 | 0 | 0.0 | 0.0 | 0.00 | 0.02 | 0.02 | 93 | 1019.9 |
| 20260830173503 | 67 | 0 | 0.0 | 0.0 | 0.00 | 0.02 | 0.02 | 93 | 1019.9 |
| 20260830173003 | 67 | 0 | 0.0 | 0.0 | 0.00 | 0.02 | 0.02 | 93 | 1019.9 |
| 20260830172503 | 67 | 0 | 0.0 | 0.0 | 0.00 | 0.02 | 0.02 | 93 | 1019.9 |
| 20260830172003 | 67 | 49 | 0.0 | 2.0 | 0.00 | 0.02 | 0.02 | 93 | 1019.9 |
| 20260830171503 | 67 | 49 | 0.0 | 2.0 | 0.00 | 0.02 | 0.02 | 93 | 1019.8 |
| 20260830171003 | 67 | 49 | 0.0 | 2.0 | 0.00 | 0.02 | 0.02 | 93 | 1019.7 |
| 20260830170503 | 67 | 49 | 0.0 | 2.0 | 0.00 | 0.02 | 0.02 | 93 | 1019.8 |
| 20260830170003 | 67 | 49 | 0.0 | 1.0 | 0.00 | 0.02 | 0.02 | 93 | 1019.8 |
| 20260830165503 | 67 | 49 | 0.0 | 2.0 | 0.00 | 0.02 | 0.02 | 93 | 1019.9 |
| 20260830165003 | 67 | 49 | 0.0 | 2.0 | 0.00 | 0.02 | 0.02 | 93 | 1019.9 |
| 20260830164503 | 67 | 49 | 0.0 | 1.0 | 0.00 | 0.02 | 0.02 | 94 | 1019.8 |
| 20260830164216 | 67 | 0 | 0.0 | 0.0 | 0.01 | 0.02 | 0.02 | 94 | 1019.9 |
| 20260830163503 | 66 | 0 | 0.0 | 0.0 | 0.01 | 0.02 | 0.02 | 93 | 1019.9 |
| 20260830163003 | 66 | 0 | 0.0 | 0.0 | 0.01 | 0.02 | 0.02 | 93 | 1019.8 |
| 20260830162503 | 66 | 0 | 0.0 | 0.0 | 0.02 | 0.02 | 0.02 | 93 | 1019.9 |
| 20260830162216 | 66 | 0 | 0.0 | 0.0 | 0.02 | 0.02 | 0.02 | 93 | 1019.9 |
| 20260830161503 | 66 | 49 | 0.0 | 1.0 | 0.02 | 0.02 | 0.02 | 93 | 1019.9 |
| 20260830161004 | 66 | 49 | 0.0 | 1.0 | 0.02 | 0.02 | 0.02 | 93 | 1020.1 |
| 20260830160503 | 66 | 0 | 0.0 | 0.0 | 0.02 | 0.02 | 0.02 | 93 | 1020.1 |
| 20260830160003 | 66 | 0 | 0.0 | 0.0 | 0.02 | 0.02 | 0.02 | 93 | 1020.2 |
| 20260830155503 | 66 | 59 | 0.0 | 1.0 | 0.02 | 0.02 | 0.02 | 93 | 1020.4 |
| 20260830155003 | 66 | 59 | 0.0 | 1.0 | 0.02 | 0.02 | 0.02 | 93 | 1020.3 |
| 20260830154503 | 66 | 0 | 0.0 | 0.0 | 0.02 | 0.02 | 0.02 | 93 | 1020.2 |
| 20260830154003 | 66 | 188 | 0.0 | 1.0 | 0.01 | 0.01 | 0.01 | 93 | 1020.2 |
| 20260830153503 | 66 | 188 | 0.0 | 1.0 | 0.01 | 0.01 | 0.01 | 93 | 1020.3 |
| 20260830153003 | 66 | 188 | 0.0 | 1.0 | 0.01 | 0.01 | 0.01 | 92 | 1020.4 |
| 20260830152503 | 66 | 188 | 0.0 | 1.0 | 0.00 | 0.00 | 0.00 | 92 | 1020.3 |
| 20260830152003 | 65 | 188 | 0.0 | 1.0 | 0.00 | 0.00 | 0.00 | 91 | 1020.2 |
| 20260830151503 | 66 | 188 | 0.0 | 1.0 | 0.00 | 0.00 | 0.00 | 91 | 1020.1 |
| 20260830151003 | 65 | 0 | 0.0 | 0.0 | 0.00 | 0.00 | 0.00 | 91 | 1020.0 |
| 20260830150717 | 65 | 0 | 0.0 | 0.0 | 0.00 | 0.00 | 0.00 | 91 | 1019.9 |
| 20260830150003 | 65 | 0 | 0.0 | 0.0 | 0.00 | 0.00 | 0.00 | 91 | 1019.9 |
| 20260830145503 | 65 | 0 | 0.0 | 0.0 | 0.00 | 0.00 | 0.00 | 91 | 1020.0 |
| 20260830145003 | 65 | 0 | 0.0 | 0.0 | 0.00 | 0.00 | 0.00 | 91 | 1019.9 |
| 20260830144503 | 65 | 0 | 0.0 | 0.0 | 0.00 | 0.00 | 0.00 | 91 | 1019.9 |
| 20260830144003 | 65 | 0 | 0.0 | 0.0 | 0.00 | 0.00 | 0.00 | 91 | 1019.7 |
| 20260830143503 | 65 | 0 | 0.0 | 0.0 | 0.00 | 0.00 | 0.00 | 91 | 1019.6 |
| 20260830143003 | 65 | 0 | 0.0 | 0.0 | 0.00 | 0.00 | 0.00 | 90 | 1019.6 |
| 20260830142503 | 65 | 0 | 0.0 | 0.0 | 0.00 | 0.00 | 0.00 | 90 | 1019.5 |
| 20260830142003 | 65 | 0 | 0.0 | 0.0 | 0.00 | 0.00 | 0.00 | 90 | 1019.4 |
| 20260830141716 | 65 | 0 | 0.0 | 0.0 | 0.00 | 0.00 | 0.00 | 90 | 1019.4 |
| 20260830141003 | 65 | 0 | 0.0 | 0.0 | 0.00 | 0.00 | 0.00 | 90 | 1019.4 |
| 20260830140503 | 65 | 0 | 0.0 | 0.0 | 0.00 | 0.00 | 0.00 | 90 | 1019.3 |
| 20260830140003 | 65 | 0 | 0.0 | 0.0 | 0.00 | 0.00 | 0.00 | 90 | 1019.4 |
| 20260830135503 | 65 | 0 | 0.0 | 0.0 | 0.00 | 0.00 | 0.00 | 90 | 1019.3 |
| 20260830135003 | 64 | 188 | 0.0 | 1.0 | 0.00 | 0.00 | 0.00 | 90 | 1019.3 |
| 20260830134503 | 64 | 188 | 0.0 | 1.0 | 0.00 | 0.00 | 0.00 | 91 | 1019.3 |
| 20260830134003 | 64 | 0 | 0.0 | 0.0 | 0.00 | 0.00 | 0.00 | 91 | 1019.2 |
| 20260830133503 | 64 | 0 | 0.0 | 0.0 | 0.00 | 0.00 | 0.00 | 91 | 1019.2 |
| 20260830133003 | 64 | 0 | 0.0 | 0.0 | 0.00 | 0.00 | 0.00 | 91 | 1019.3 |
| 20260830132503 | 64 | 188 | 0.0 | 1.0 | 0.00 | 0.00 | 0.00 | 91 | 1019.2 |
| 20260830132003 | 64 | 188 | 0.0 | 1.0 | 0.00 | 0.00 | 0.00 | 91 | 1019.2 |
| 20260830131503 | 64 | 0 | 0.0 | 0.0 | 0.00 | 0.00 | 0.00 | 90 | 1019.0 |
| 20260830131003 | 64 | 188 | 0.0 | 1.0 | 0.00 | 0.00 | 0.00 | 91 | 1019.0 |
| 20260830130503 | 64 | 188 | 0.0 | 1.0 | 0.00 | 0.00 | 0.00 | 91 | 1019.0 |
| 20260830130003 | 64 | 0 | 0.0 | 0.0 | 0.00 | 0.00 | 0.00 | 91 | 1019.2 |
| 20260830125503 | 64 | 188 | 0.0 | 1.0 | 0.00 | 0.00 | 0.00 | 91 | 1019.3 |
| 20260830125003 | 64 | 188 | 0.0 | 1.0 | 0.00 | 0.00 | 0.00 | 91 | 1019.3 |
| 20260830124503 | 64 | 0 | 0.0 | 0.0 | 0.00 | 0.00 | 0.00 | 91 | 1019.3 |
| 20260830124003 | 64 | 0 | 0.0 | 0.0 | 0.00 | 0.00 | 0.00 | 91 | 1019.3 |
| 20260830123503 | 63 | 0 | 0.0 | 0.0 | 0.00 | 0.00 | 0.00 | 91 | 1019.3 |
| 20260830123003 | 63 | 0 | 0.0 | 0.0 | 0.00 | 0.00 | 0.00 | 91 | 1019.1 |
| 20260830122503 | 63 | 0 | 0.0 | 0.0 | 0.00 | 0.00 | 0.00 | 90 | 1019.1 |
| 20260830122003 | 63 | 0 | 0.0 | 0.0 | 0.00 | 0.00 | 0.00 | 90 | 1019.2 |
| 20260830121503 | 63 | 0 | 0.0 | 0.0 | 0.00 | 0.00 | 0.00 | 90 | 1019.3 |
| 20260830121217 | 63 | 0 | 0.0 | 0.0 | 0.00 | 0.00 | 0.00 | 90 | 1019.4 |
| 20260830120503 | 63 | 0 | 0.0 | 0.0 | 0.00 | 0.00 | 0.00 | 90 | 1019.4 |
| 20260830120003 | 63 | 0 | 0.0 | 0.0 | 0.00 | 0.00 | 0.00 | 90 | 1019.2 |
| 20260830115503 | 63 | 0 | 0.0 | 0.0 | 0.00 | 0.00 | 0.00 | 90 | 1019.2 |
| 20260830115003 | 63 | 0 | 0.0 | 0.0 | 0.00 | 0.00 | 0.00 | 90 | 1019.1 |
| 20260830114503 | 63 | 0 | 0.0 | 0.0 | 0.00 | 0.00 | 0.00 | 90 | 1018.9 |
| 20260830114003 | 62 | 0 | 0.0 | 0.0 | 0.00 | 0.00 | 0.00 | 90 | 1019.0 |
| 20260830113503 | 62 | 0 | 0.0 | 0.0 | 0.00 | 0.00 | 0.00 | 90 | 1019.0 |
| 20260830113003 | 62 | 0 | 0.0 | 0.0 | 0.00 | 0.00 | 0.00 | 90 | 1019.1 |
| 20260830112503 | 62 | 0 | 0.0 | 0.0 | 0.00 | 0.00 | 0.00 | 89 | 1019.2 |
| 20260830112003 | 62 | 0 | 0.0 | 0.0 | 0.00 | 0.00 | 0.00 | 90 | 1019.2 |
| 20260830111503 | 62 | 0 | 0.0 | 0.0 | 0.00 | 0.00 | 0.00 | 90 | 1019.0 |
| 20260830111003 | 62 | 0 | 0.0 | 0.0 | 0.00 | 0.00 | 0.00 | 90 | 1019.1 |
| 20260830110503 | 62 | 0 | 0.0 | 0.0 | 0.00 | 0.00 | 0.00 | 89 | 1019.3 |